DMARA EDDG-EDDG

Flight info

Callsign DMARA
Flight time 0h 9m
Altitude 2000
Route OSN
Aircraft C172/L-SFG/C

Departure

Time 2026-04-15 15:38
Airport Münster Osnabrück Airport (EDDG)

Arrival

Time 2026-04-15 15:47
Airport Münster Osnabrück Airport (EDDG)
Time Latitude Longitude Altitude Speed Heading
2026-04-15 15:27 52.13124 7.68546 155 ft 0 kts 271°
2026-04-15 15:33 52.13124 7.68534 156 ft 3 kts 267°
2026-04-15 15:33 52.13124 7.68468 155 ft 6 kts 281°
2026-04-15 15:34 52.13136 7.68407 155 ft 6 kts 296°
2026-04-15 15:34 52.13179 7.68367 155 ft 8 kts 338°
2026-04-15 15:34 52.13220 7.68345 155 ft 6 kts 336°
2026-04-15 15:34 52.13261 7.68320 155 ft 6 kts 340°
2026-04-15 15:35 52.13312 7.68290 155 ft 6 kts 338°
2026-04-15 15:35 52.13317 7.68287 155 ft 0 kts 339°
2026-04-15 15:35 52.13318 7.68287 155 ft 0 kts 339°
2026-04-15 15:35 52.13324 7.68282 155 ft 2 kts 337°
2026-04-15 15:36 52.13349 7.68266 155 ft 4 kts 344°
2026-04-15 15:36 52.13394 7.68247 155 ft 7 kts 347°
2026-04-15 15:36 52.13409 7.68228 155 ft 0 kts 281°
2026-04-15 15:36 52.13410 7.68227 155 ft 1 kts 278°
2026-04-15 15:37 52.13368 7.68024 156 ft 46 kts 249°
2026-04-15 15:37 52.13228 7.67344 244 ft 70 kts 243°
2026-04-15 15:37 52.13119 7.66529 425 ft 75 kts 250°
2026-04-15 15:37 52.13028 7.65641 602 ft 79 kts 253°
2026-04-15 15:38 52.12952 7.64782 803 ft 78 kts 258°
2026-04-15 15:38 52.13273 7.64083 936 ft 92 kts 344°
2026-04-15 15:38 52.13912 7.63961 1105 ft 92 kts 13°
2026-04-15 15:38 52.14267 7.64634 1263 ft 91 kts 71°
2026-04-15 15:39 52.14504 7.65615 1376 ft 97 kts 71°
2026-04-15 15:39 52.14779 7.66628 1544 ft 94 kts 69°
2026-04-15 15:39 52.15096 7.67657 1493 ft 116 kts 60°
2026-04-15 15:39 52.15523 7.68764 1365 ft 114 kts 63°
2026-04-15 15:40 52.15886 7.69899 1258 ft 110 kts 73°
2026-04-15 15:40 52.16098 7.70942 1306 ft 87 kts 85°
2026-04-15 15:40 52.15870 7.71831 1053 ft 94 kts 130°
2026-04-15 15:40 52.15332 7.71814 1019 ft 71 kts 193°
2026-04-15 15:41 52.14806 7.71670 793 ft 80 kts 181°
2026-04-15 15:41 52.14280 7.71331 529 ft 89 kts 211°
2026-04-15 15:41 52.13916 7.70531 308 ft 84 kts 240°
2026-04-15 15:41 52.13718 7.69683 188 ft 76 kts 246°
2026-04-15 15:42 52.13567 7.68963 160 ft 59 kts 249°
2026-04-15 15:42 52.13440 7.68337 241 ft 66 kts 252°
2026-04-15 15:42 52.13316 7.67556 404 ft 71 kts 243°
2026-04-15 15:42 52.13089 7.66779 559 ft 78 kts 233°
2026-04-15 15:43 52.12843 7.65939 684 ft 87 kts 242°
2026-04-15 15:43 52.12675 7.64981 868 ft 90 kts 269°
2026-04-15 15:43 52.13112 7.64229 958 ft 104 kts 336°
2026-04-15 15:43 52.13816 7.63845 1021 ft 110 kts 356°
2026-04-15 15:44 52.14436 7.64432 1069 ft 112 kts 63°
2026-04-15 15:44 52.14695 7.65677 1007 ft 120 kts 74°
2026-04-15 15:44 52.14976 7.66916 1062 ft 104 kts 72°
2026-04-15 15:44 52.15230 7.67958 1011 ft 94 kts 71°
2026-04-15 15:45 52.15476 7.68895 1008 ft 87 kts 67°
2026-04-15 15:45 52.15734 7.69767 976 ft 85 kts 67°
2026-04-15 15:45 52.15913 7.70661 946 ft 81 kts 95°
2026-04-15 15:45 52.15684 7.71438 934 ft 76 kts 147°
2026-04-15 15:46 52.15176 7.71693 929 ft 85 kts 167°
2026-04-15 15:46 52.14561 7.71651 747 ft 88 kts 200°
2026-04-15 15:46 52.14092 7.70959 422 ft 95 kts 230°
2026-04-15 15:46 52.13808 7.70056 225 ft 81 kts 244°
2026-04-15 15:47 52.13636 7.69277 159 ft 60 kts 245°
2026-04-15 15:47 52.13535 7.68849 158 ft 30 kts 252°
2026-04-15 15:47 52.13473 7.68548 158 ft 27 kts 255°
2026-04-15 15:47 52.13397 7.68294 155 ft 21 kts 214°
2026-04-15 15:48 52.13301 7.68293 155 ft 10 kts 163°
2026-04-15 15:48 52.13237 7.68330 155 ft 9 kts 162°
2026-04-15 15:48 52.13193 7.68355 155 ft 3 kts 158°
2026-04-15 15:48 52.13171 7.68368 155 ft 1 kts 181°
2026-04-15 15:49 52.13157 7.68351 155 ft 4 kts 241°
2026-04-15 15:49 52.13155 7.68286 155 ft 5 kts 283°
2026-04-15 15:49 52.13157 7.68252 155 ft 0 kts 273°